Search for airport 
image banner adimage banner ad
image banner ad

DAUA - Adrar / Touat Cheikh Sidi Mohamed Belkebir

Located in Adrar, Algeria

ICAO - DAUA, IATA - AZR

Data provided by Airmate  

General information

Coordinates: N27°50'21" W0°11'7"
Elevation is 918 feet MSL.
 
View others Airports in Adrar Province

Operational data

Open for public use
Current time UTC:
Current local time:
Weather
METAR: DAUA 290000Z 07004KT CAVOK 30/01 Q1012
TAF: TAF DAUA 282300Z 2900/2924 VRB02KT CAVOK BECMG 2909/2912 20010KT
View NOTAMs / SUP AIP / TFR affecting this airport [VIEW]
Communications frequencies: [VIEW]

Runways:

RWY identifierQFULength (ft)Width (ft)SurfaceLDA (ft)
0440°9843148ASP
22220°9843148

Airport contact information

Address: Adrar Algeria

Satellite view of DAUA